Location: *
(40.7113°N, 73.7007°W)
Time: 08:31:57
(UTC+00:00)

Daily predictions for brighter satellites

Satellite Brightness Start Highest point End
(mag) Time Altitude Azimuth Time Altitude Azimuth Time Altitude Azimuth
COSMOS 2455 3.3 22:54:48 10° NNW 23:00:30 41° NE 23:06:10 10° ESE
SKYMED 2 3.5 22:57:17 10° NNE 23:01:39 78° ESE 23:05:58 10° S
CZ-4 R/B 4.4 22:58:13 10° SSE 23:02:20 74° ENE 23:06:29 10° N
YAOGAN 1 2.6 23:00:01 10° SSE 23:04:16 64° ENE 23:08:34 10° N
Cosmos 1633 Rocket 4.3 23:00:04 10° SSW 23:04:18 46° W 23:08:35 10° N
Cosmos 1703 Rocket 4.3 23:00:54 10° NNE 23:04:42 29° ENE 23:08:29 10° SE
Okean 1-7 4.1 23:01:41 10° NNE 23:05:08 23° ENE 23:08:33 10° SE
NOSS 2-1 (E) 3.8 23:03:45 10° S 23:07:01 35° ESE 23:10:26 10° NE
SL-08 ROCKET BODY 4.5 23:04:55 10° N 23:11:08 80° E 23:17:19 10° S
Cosmos 1943 4.0 23:06:49 10° NNW 23:12:20 56° WSW 23:17:48 10° S
Cosmos 2315 Rocket 4.0 23:09:17 10° S 23:15:30 79° E 23:21:48 10° N
Meteor 2-6 Rocket 4.4 23:10:30 10° NNW 23:15:54 77° W 23:21:16 10° S
Cosmos 1356 Rocket 3.5 23:13:35 10° N 23:17:29 47° ENE 23:21:23 10° SSE
Cosmos 1844 Rocket 3.1 23:15:16 10° S 23:20:33 42° ESE 23:25:52 10° NE
BREEZE-M DEB (TANK) 3.3 23:17:25 10° WSW 23:22:45 55° NNW 23:25:05 13° ENE
Cosmos 372 Rocket 4.0 23:17:41 10° NNW 23:22:55 66° ENE 23:28:08 10° SSE
Cosmos 2278 Rocket 3.9 23:23:11 10° ESE 23:24:19 11° ESE 23:24:19 11° ESE
Cosmos 1125 Rocket 3.7 23:19:55 10° N 23:25:04 49° ENE 23:30:11 10° SE
Atlas Centaur 2 4.4 23:24:08 10° SSE 23:25:55 11° SE 23:27:46 10° SE
Meteor 1-27 Rocket 3.7 23:21:08 10° N 23:26:50 75° E 23:32:38 10° SSE
NOSS 3-1 (A) 4.5 23:19:48 10° NW 23:27:33 72° WSW 23:36:09 10° SSE
CZ-2D R/B 4.0 23:24:19 10° SE 23:27:40 31° ENE 23:31:03 10° N
CZ-4C R/B 3.0 23:25:36 10° SSE 23:29:37 25° ESE 23:33:12 13° ENE
SJ-6B 4.3 23:31:11 17° E 23:32:21 18° ENE 23:35:13 10° NNE
Ariane Rocket 3.1 23:28:38 10° SSE 23:33:43 85° WSW 23:38:52 10° NNW
HJ-1C 4.2 23:32:15 10° SE 23:35:11 29° ENE 23:38:10 10° N
SJ 16-02 2.8 23:35:18 10° NNW 23:39:27 41° WSW 23:43:36 10° S
CZ-2C R/B 3.6 23:39:49 10° NNE 23:44:16 67° ESE 23:48:44 10° S
IRS-1A Rocket 4.2 23:40:25 10° SSE 23:45:57 89° ENE 23:51:37 10° NNW
Lacrosse 5 rocket 1.4 23:46:14 10° SSW 23:49:53 50° SE 23:51:37 28° ENE
Nadezhda 1 Rocket 4.2 23:45:42 10° SSE 23:51:39 46° E 23:57:42 10° NNE
Tiangong 2 2.3 23:49:00 10° W 23:51:59 37° SSW 23:53:39 20° SSE
Cosmos 1869 Rocket 3.5 23:49:30 10° S 23:53:55 80° E 23:58:24 10° N
Cosmos 1633 3.3 23:51:19 10° SSW 23:54:53 55° W 23:58:28 10° N
DEBRIS 3.1 23:54:15 10° W 23:57:26 37° NNW 23:58:13 27° NNE
